sat.trackr.live / text

‹ back to catalog

TRANSPORTER-12 OBJECT BR

NORAD 62672 · 2025-009BR

PAYLOAD ACTIVE UNKNOWN

§ Identity

Operator
Country
TBD
Launch date
2025-01-14
Launch site
AFWTR
Launch vehicle
Mass (kg)
RCS (m²)

External: N2YO · Heavens-Above · Gunter

§ Orbital elements

Epoch: 2026-05-25T03:58:15.890016Z

Period
94.57 min
Inclination
97.3953°
Eccentricity
0.0006020
Mean motion
15.22737114 rev/d
Perigee alt
493.4 km
Apogee alt
501.7 km
Semi-major
6,875.7 km
B*
1.7924e-4
RAAN
224.6174°
Arg perigee
66.4469°
Mean anomaly
293.7400°
Rev number
13,288

§ Raw data

TRANSPORTER-12 OBJECT BR1 62672U 25009BR  26145.16546169  .00004113  00000+0  17924-3 0  99992 62672  97.3953 224.6174 0006020  66.4469 293.7400 15.22737114132880

JSON: /api/v1/satellites/62672 · /tle

For live sub-satellite position, see the globe view (requires WebGL).

§ Visibility from observer

Set your observer location to see the next 7 days of passes ≥ 10°. The values pass through the URL so the page stays shareable.

No JS? Fill the form by hand. The geolocation button needs JavaScript.